GW6769 Weather Reports


Display with metric or nautical units.
time (UTC)temp
F
wind
direction
speed
MPH
gust
MPH
rain 1hr
in
rain 24hr
in
rain mn
in
humidity
%
barometer
mb
20260510033404 75 131 3.0 7.0 0.00 0.02 0.02 83 1010.1
20260510032404 76 134 3.0 6.0 0.00 0.02 0.02 83 1009.9
20260510031904 76 138 3.0 6.0 0.00 0.02 0.02 83 1009.9
20260510030904 76 130 2.0 5.0 0.00 0.02 0.02 83 1009.7
20260510030405 76 134 3.0 7.0 0.00 0.02 0.02 83 1009.7
20260510025904 76 142 3.0 9.0 0.00 0.02 0.02 83 1009.6
20260510025404 77 130 5.0 9.0 0.00 0.02 0.02 83 1009.5
20260510024905 77 129 5.0 8.0 0.00 0.02 0.02 82 1009.4
20260510024405 77 129 5.0 10.0 0.00 0.02 0.02 82 1009.3
20260510023904 77 125 5.0 10.0 0.00 0.02 0.02 82 1009.3
20260510023405 77 134 6.0 10.0 0.00 0.02 0.02 82 1009.2
20260510022405 77 128 4.0 7.0 0.00 0.02 0.02 81 1009.1
20260510021904 77 130 3.0 6.0 0.00 0.02 0.02 80 1009.1
20260510021405 77 121 5.0 7.0 0.00 0.02 0.02 80 1009.1
20260510015905 77 125 4.0 6.0 0.00 0.02 0.02 78 1008.9
20260510015405 78 123 4.0 6.0 0.00 0.02 0.02 77 1008.8
20260510014905 78 125 3.0 5.0 0.00 0.02 0.02 76 1008.8
20260510014409 78 128 3.0 6.0 0.00 0.02 0.02 75 1008.8
20260510013904 78 128 3.0 6.0 0.00 0.02 0.02 74 1008.7
20260510013404 79 127 3.0 5.0 0.00 0.02 0.02 73 1008.7
20260510012404 80 127 3.0 5.0 0.00 0.02 0.02 71 1008.6
20260510011905 80 132 2.0 6.0 0.00 0.02 0.02 69 1008.6
20260510011404 81 129 3.0 6.0 0.00 0.02 0.02 68 1008.5
20260510010905 81 121 3.0 6.0 0.00 0.02 0.02 67 1008.5
20260510010405 82 120 4.0 7.0 0.00 0.02 0.02 66 1008.4
20260510005904 82 123 4.0 7.0 0.00 0.02 0.02 65 1008.5
20260510005404 82 126 4.0 7.0 0.00 0.02 0.02 64 1008.4
20260510004904 83 125 5.0 8.0 0.00 0.02 0.02 63 1008.4
20260510003405 84 126 5.0 10.0 0.00 0.02 0.02 60 1008.3
20260510002905 84 123 5.0 10.0 0.00 0.02 0.02 58 1008.3
20260510002405 84 120 6.0 10.0 0.00 0.02 0.02 58 1008.2
20260510000905 85 124 7.0 14.0 0.00 0.02 0.02 55 1008.1
20260510000404 85 124 9.0 14.0 0.00 0.02 0.02 54 1008.0
20260509235904 85 127 6.0 12.0 0.00 0.02 0.02 53 1007.9
20260509235405 86 113 6.0 12.0 0.00 0.02 0.02 51 1007.9
20260509233905 86 121 9.0 16.0 0.00 0.02 0.02 47 1007.8
20260509233404 86 125 6.0 13.0 0.00 0.02 0.02 50 1007.8
20260509232905 86 118 6.0 13.0 0.00 0.02 0.02 49 1007.7
20260509232405 86 118 7.0 15.0 0.00 0.02 0.02 48 1007.7
20260509231905 86 112 6.0 15.0 0.00 0.02 0.02 50 1007.7
20260509231405 86 126 10.0 15.0 0.00 0.02 0.02 49 1007.7
20260509230905 86 125 8.0 16.0 0.00 0.02 0.02 53 1007.7
20260509230406 86 124 10.0 17.0 0.00 0.02 0.02 55 1007.6
20260509225904 87 114 11.0 17.0 0.00 0.02 0.02 54 1007.7
20260509225404 87 120 12.0 17.0 0.00 0.02 0.02 51 1007.5
20260509224905 88 101 7.0 12.0 0.00 0.02 0.02 53 1007.6
20260509224406 88 132 6.0 14.0 0.00 0.02 0.02 53 1007.6
20260509223905 88 122 9.0 14.0 0.00 0.02 0.02 53 1007.6
20260509222905 88 128 5.0 12.0 0.00 0.02 0.02 57 1007.5
20260509222405 88 114 5.0 9.0 0.00 0.02 0.02 55 1007.5
20260509221905 88 126 3.0 8.0 0.00 0.02 0.02 55 1007.5
20260509221405 87 36 2.0 8.0 0.00 0.02 0.02 56 1007.5
20260509215906 86 122 4.0 9.0 0.00 0.02 0.02 61 1007.5
20260509215405 85 118 5.0 7.0 0.00 0.02 0.02 59 1007.6
20260509214905 85 93 3.0 12.0 0.00 0.02 0.02 60 1007.7
20260509214406 86 125 6.0 12.0 0.00 0.02 0.02 61 1007.7
20260509213905 85 140 7.0 12.0 0.00 0.02 0.02 60 1007.8
20260509213405 84 135 4.0 14.0 0.00 0.02 0.02 64 1007.9
20260509212905 82 145 6.0 15.0 0.00 0.02 0.02 63 1008.0
20260509212405 82 132 9.0 17.0 0.00 0.02 0.02 63 1008.3
20260509211905 82 116 10.0 18.0 0.00 0.02 0.02 62 1008.3
20260509211405 81 127 11.0 21.0 0.00 0.02 0.02 60 1008.4
20260509210905 81 131 12.0 21.0 0.00 0.02 0.02 58 1008.4
20260509210406 80 131 13.0 21.0 0.00 0.02 0.02 57 1008.5
20260509205905 79 128 9.0 30.0 0.00 0.02 0.02 63 1008.4
20260509204906 81 112 17.0 26.0 0.00 0.02 0.02 54 1008.5
20260509204405 83 112 13.0 22.0 0.00 0.02 0.02 53 1008.4
20260509203906 86 115 16.0 22.0 0.00 0.02 0.02 56 1008.8
20260509203405 89 72 6.0 14.0 0.00 0.02 0.02 53 1008.4
20260509202905 89 331 7.0 15.0 0.00 0.02 0.02 51 1008.5
20260509202405 90 352 7.0 16.0 0.00 0.02 0.02 49 1008.5
20260509201906 91 340 12.0 16.0 0.00 0.02 0.02 50 1008.4
20260509201405 91 7 2.0 10.0 0.00 0.02 0.02 52 1008.5
20260509200405 90 328 5.0 13.0 0.00 0.02 0.02 54 1008.5
20260509195906 89 147 2.0 13.0 0.00 0.02 0.02 53 1008.6
20260509195405 91 59 6.0 14.0 0.00 0.02 0.02 51 1008.7
20260509193905 89 0 5.0 15.0 0.00 0.02 0.02 55 1008.9
20260509193405 89 2 3.0 15.0 0.00 0.02 0.02 56 1009.0
20260509192905 89 293 4.0 10.0 0.00 0.02 0.02 56 1009.0
20260509192405 89 348 3.0 15.0 0.00 0.02 0.02 54 1009.0
20260509191405 89 112 1.0 12.0 0.00 0.02 0.02 58 1009.0
20260509190905 88 128 2.0 12.0 0.00 0.02 0.02 56 1009.2
20260509190405 87 293 8.0 14.0 0.00 0.02 0.02 59 1009.3
20260509185905 89 298 9.0 14.0 0.00 0.02 0.02 54 1009.3
20260509185406 89 337 7.0 14.0 0.00 0.02 0.02 60 1009.4
20260509184906 88 116 3.0 14.0 0.00 0.02 0.02 58 1009.5
20260509184405 88 331 4.0 14.0 0.00 0.02 0.02 59 1009.6
20260509183906 88 286 6.0 14.0 0.00 0.02 0.02 59 1009.8
20260509183405 86 314 3.0 6.0 0.00 0.02 0.02 64 1009.9
20260509182906 85 42 1.0 6.0 0.00 0.02 0.02 62 1009.9
20260509182407 86 336 2.0 10.0 0.00 0.02 0.02 60 1010.0
20260509181905 87 331 2.0 12.0 0.00 0.02 0.02 61 1010.0
20260509181405 87 294 5.0 12.0 0.00 0.02 0.02 60 1010.0
20260509180906 88 324 5.0 12.0 0.00 0.02 0.02 59 1010.1
20260509180405 88 354 6.0 12.0 0.00 0.02 0.02 63 1010.0
20260509174905 84 291 5.0 12.0 0.00 0.02 0.02 68 1010.5
20260509174405 84 102 3.0 7.0 0.00 0.02 0.02 69 1010.4
20260509173405 85 287 4.0 12.0 0.00 0.02 0.02 68 1010.6
20260509172905 85 23 3.0 12.0 0.00 0.02 0.02 67 1010.7
20260509172407 85 295 2.0 9.0 0.00 0.02 0.02 66 1010.6
20260509171906 85 343 3.0 9.0 0.00 0.02 0.02 66 1010.6
20260509171405 85 46 3.0 9.0 0.00 0.02 0.02 68 1010.5
20260509170905 83 122 3.0 8.0 0.00 0.02 0.02 72 1010.6
20260509170406 83 353 3.0 8.0 0.00 0.02 0.02 70 1010.8
20260509165906 83 4 3.0 12.0 0.00 0.02 0.02 73 1010.8
20260509164905 82 283 6.0 10.0 0.00 0.02 0.02 75 1010.7
20260509164407 82 299 5.0 9.0 0.00 0.02 0.02 76 1010.7
20260509163905 82 334 2.0 9.0 0.00 0.02 0.02 78 1010.7
20260509163405 83 130 4.0 12.0 0.00 0.02 0.02 76 1010.8
20260509162906 83 356 3.0 12.0 0.00 0.02 0.02 77 1010.7
20260509162406 82 301 5.0 16.0 0.00 0.02 0.02 78 1010.7
20260509161906 81 334 6.0 16.0 0.00 0.02 0.02 79 1010.6
20260509161406 81 321 6.0 14.0 0.00 0.02 0.02 79 1010.6
20260509160406 80 129 5.0 12.0 0.00 0.02 0.02 83 1010.6
20260509155906 80 345 3.0 12.0 0.00 0.02 0.02 85 1010.7
20260509154406 78 119 4.0 12.0 0.00 0.02 0.02 88 1010.7
20260509153405 76 21 5.0 12.0 0.00 0.02 0.02 92 1010.9
20260509152906 75 6 5.0 12.0 0.00 0.02 0.02 91 1011.0
20260509152406 75 61 5.0 12.0 0.00 0.02 0.02 91 1010.9
20260509151906 76 155 5.0 10.0 0.00 0.02 0.02 90 1011.0
20260509151406 74 112 4.0 10.0 0.00 0.02 0.02 90 1011.0
20260509150906 74 124 5.0 9.0 0.00 0.02 0.02 91 1011.0
20260509150405 73 143 4.0 9.0 0.00 0.02 0.02 91 1011.0
20260509145906 73 143 3.0 12.0 0.00 0.02 0.02 91 1010.9
20260509145406 73 132 5.0 12.0 0.00 0.02 0.02 91 1010.6
20260509144905 73 142 6.0 12.0 0.00 0.02 0.02 91 1010.5
20260509143906 73 140 6.0 12.0 0.00 0.02 0.02 91 1010.5
20260509143407 73 142 5.0 13.0 0.00 0.02 0.02 91 1010.4
20260509142906 73 142 6.0 13.0 0.00 0.02 0.02 91 1010.3
20260509142406 73 143 6.0 13.0 0.00 0.02 0.02 91 1010.2
20260509141906 73 154 6.0 13.0 0.00 0.02 0.02 91 1010.2
20260509141406 73 139 6.0 12.0 0.00 0.02 0.02 91 1010.2
20260509140904 73 139 6.0 12.0 0.00 0.02 0.02 91 1010.2
20260509134903 72 331 1.0 5.0 0.00 0.02 0.02 91 1010.4
20260509134403 72 346 1.0 6.0 0.00 0.02 0.02 91 1010.5
20260509133903 72 350 4.0 7.0 0.00 0.02 0.02 91 1010.6
20260509133403 72 323 3.0 7.0 0.00 0.02 0.02 91 1010.6
20260509132903 72 346 2.0 5.0 0.00 0.02 0.02 91 1010.7
20260509132403 72 327 3.0 6.0 0.00 0.02 0.02 91 1010.7
20260509131404 72 86 2.0 3.0 0.00 0.02 0.02 91 1010.5
20260509125904 72 94 2.0 8.0 0.00 0.02 0.02 91 1010.0
20260509125403 72 9 3.0 8.0 0.00 0.02 0.02 91 1010.0
20260509124403 72 358 3.0 6.0 0.00 0.02 0.02 91 1010.0
20260509123903 72 348 2.0 6.0 0.00 0.02 0.02 91 1010.2
20260509123403 72 357 2.0 6.0 0.00 0.02 0.02 91 1010.1
20260509122903 72 17 2.0 5.0 0.00 0.02 0.02 92 1010.0
20260509122403 72 343 3.0 5.0 0.00 0.02 0.02 92 1010.1
20260509121903 72 341 2.0 3.0 0.00 0.02 0.02 91 1010.2
20260509121404 72 32 2.0 7.0 0.00 0.02 0.02 92 1010.3
20260509120904 72 323 3.0 8.0 0.00 0.02 0.02 92 1010.4
20260509120404 72 334 4.0 9.0 0.00 0.02 0.02 92 1010.3
20260509115904 72 345 6.0 9.0 0.00 0.02 0.02 92 1010.2
20260509115403 72 348 5.0 9.0 0.00 0.02 0.02 92 1010.3
20260509114904 72 327 5.0 6.0 0.00 0.02 0.02 92 1010.2
20260509114405 72 337 2.0 5.0 0.00 0.02 0.02 92 1010.4
20260509113903 72 9 2.0 6.0 0.00 0.02 0.02 92 1010.7
20260509113403 72 339 3.0 6.0 0.00 0.02 0.02 92 1011.0
20260509112403 72 336 3.0 6.0 0.00 0.02 0.02 92 1010.9
20260509111903 72 40 2.0 6.0 0.00 0.02 0.02 92 1011.1
20260509111403 72 18 1.0 8.0 0.00 0.02 0.02 92 1011.0
20260509110904 72 4 2.0 10.0 0.00 0.02 0.02 92 1011.0
20260509110403 72 39 5.0 10.0 0.00 0.02 0.02 92 1011.0
20260509105904 72 350 5.0 9.0 0.00 0.02 0.02 92 1011.1
20260509105404 72 344 4.0 8.0 0.01 0.02 0.02 92 1011.1
20260509104904 72 3 5.0 8.0 0.01 0.02 0.02 92 1011.1
20260509104403 72 7 2.0 7.0 0.01 0.02 0.02 92 1011.0
20260509103904 72 24 2.0 5.0 0.01 0.02 0.02 92 1011.0
20260509102904 72 12 2.0 5.0 0.01 0.02 0.02 92 1010.9
20260509102404 72 39 3.0 5.0 0.01 0.02 0.02 92 1010.7
20260509101403 72 99 2.0 5.0 0.01 0.02 0.02 92 1010.3
20260509100903 72 121 3.0 5.0 0.01 0.02 0.02 92 1010.1
20260509100404 72 118 2.0 5.0 0.01 0.02 0.02 92 1010.0
20260509095904 72 113 2.0 3.0 0.01 0.02 0.02 92 1009.9
20260509095404 72 109 2.0 8.0 0.00 0.01 0.01 92 1009.7
20260509094405 72 117 3.0 5.0 0.01 0.01 0.01 92 1009.7
20260509093904 72 110 3.0 5.0 0.01 0.01 0.01 92 1009.9
20260509093404 72 115 2.0 3.0 0.01 0.01 0.01 92 1009.9
20260509092904 72 86 1.0 3.0 0.01 0.01 0.01 92 1009.9
20260509092404 72 71 0.0 3.0 0.01 0.01 0.01 92 1009.7
20260509091904 72 315 1.0 3.0 0.01 0.01 0.01 92 1009.6
20260509091404 72 74 2.0 3.0 0.01 0.01 0.01 92 1009.6
20260509090404 72 92 2.0 3.0 0.01 0.01 0.01 92 1009.5
20260509085904 72 104 2.0 3.0 0.01 0.01 0.01 92 1009.7
20260509085404 72 65 1.0 5.0 0.01 0.01 0.01 92 1009.7
20260509084904 72 136 1.0 5.0 0.00 0.00 0.00 92 1009.8
20260509084404 72 87 2.0 5.0 0.00 0.00 0.00 92 1009.9
20260509083904 72 58 2.0 5.0 0.00 0.00 0.00 92 1009.9
20260509083404 72 51 2.0 5.0 0.00 0.00 0.00 92 1009.9
20260509082905 72 18 1.0 5.0 0.00 0.00 0.00 92 1010.0
20260509082404 72 62 3.0 7.0 0.00 0.00 0.00 92 1010.0
20260509081904 72 34 3.0 7.0 0.00 0.00 0.00 92 1009.9
20260509080404 72 57 1.0 3.0 0.00 0.00 0.00 92 1009.9
20260509075904 72 34 1.0 3.0 0.00 0.00 0.00 92 1009.7
20260509075404 72 118 2.0 3.0 0.00 0.00 0.00 92 1009.8
20260509074904 72 124 1.0 7.0 0.00 0.00 0.00 92 1009.8
20260509074404 72 121 3.0 9.0 0.00 0.00 0.00 92 1009.7
20260509073904 72 120 5.0 9.0 0.00 0.00 0.00 92 1009.7
20260509072404 72 145 4.0 7.0 0.00 0.00 0.00 92 1009.9
20260509071904 72 143 5.0 7.0 0.00 0.00 0.00 92 1009.9
20260509071405 72 146 3.0 8.0 0.00 0.00 0.00 92 1010.0
20260509070904 72 140 3.0 8.0 0.00 0.00 0.00 92 1010.1
20260509070404 72 135 2.0 7.0 0.00 0.00 0.00 92 1010.1
20260509065905 72 151 4.0 9.0 0.00 0.00 0.00 92 1010.0
20260509065404 72 160 5.0 10.0 0.00 0.00 0.00 92 1010.1
20260509064904 72 109 4.0 12.0 0.00 0.00 0.00 92 1009.9
20260509064404 72 145 5.0 13.0 0.00 0.00 0.00 92 1009.8
20260509063904 72 129 5.0 13.0 0.00 0.00 0.00 92 1009.7
20260509062904 72 137 5.0 15.0 0.00 0.00 0.00 92 1009.4
20260509062405 72 134 7.0 15.0 0.00 0.00 0.00 92 1009.6
20260509061905 72 149 7.0 13.0 0.00 0.00 0.00 92 1009.7
20260509061404 72 162 5.0 13.0 0.00 0.00 0.00 92 1009.7
20260509060904 72 145 5.0 13.0 0.00 0.00 0.00 92 1009.8
20260509060404 72 142 6.0 13.0 0.00 0.00 0.00 92 1009.7
20260509055904 72 135 6.0 14.0 0.00 0.00 0.00 92 1009.6
20260509055404 72 134 5.0 18.0 0.00 0.00 0.00 92 1009.5
20260509054904 72 136 7.0 21.0 0.00 0.00 0.00 92 1009.4
20260509054404 72 141 10.0 21.0 0.00 0.00 0.00 92 1009.6
20260509053904 72 138 6.0 12.0 0.00 0.00 0.00 92 1009.6
20260509051905 72 140 6.0 12.0 0.00 0.00 0.00 92 1009.6
20260509051405 72 151 5.0 9.0 0.00 0.00 0.00 92 1009.5
20260509050404 72 132 5.0 10.0 0.00 0.00 0.00 92 1009.3
20260509045904 72 128 6.0 10.0 0.00 0.00 0.00 92 1009.3
20260509045405 72 129 5.0 10.0 0.00 0.00 0.00 92 1009.3
20260509044904 72 131 5.0 9.0 0.00 0.00 0.00 91 1009.2
20260509044404 72 131 6.0 10.0 0.00 0.00 0.00 91 1009.1
20260509043904 72 133 6.0 10.0 0.00 0.00 0.00 91 1009.2
20260509042904 72 130 5.0 9.0 0.00 0.00 0.00 91 1009.2
20260509042405 72 135 5.0 12.0 0.00 0.00 0.00 91 1009.4
20260509041904 72 134 5.0 13.0 0.00 0.00 0.00 90 1009.4
20260509041404 73 133 7.0 13.0 0.00 0.00 0.00 90 1009.5
20260509040904 72 137 5.0 10.0 0.00 0.00 0.00 90 1009.7
20260509040404 72 134 3.0 8.0 0.00 0.00 0.00 90 1009.7
20260509035904 73 139 3.0 8.0 0.00 0.00 0.00 90 1009.7
20260509035404 73 140 3.0 7.0 0.00 0.00 0.00 90 1009.7
20260509034905 73 142 4.0 7.0 0.00 0.00 0.00 90 1009.7
20260509034404 73 136 3.0 7.0 0.00 0.00 0.00 90 1009.8
20260509033904 73 146 3.0 7.0 0.00 0.00 0.00 90 1009.7